Santander Airport, Spain

5:59 PM CET on February 12, 2016 (GMT +0100)
Santander Airport

Weather History for LEXJ - November, 2012

Change the Weather History Date:

Monday, November 12, 2012

  Actual Average Record
Temperature  
Mean Temperature 50 °F -  
Max Temperature 55 °F 55 °F 69 °F (2011)
Min Temperature 44 °F 45 °F 39 °F (2007)
Degree Days  
Heating Degree Days 16    
Moisture  
Dew Point 46 °F    
Average Humidity 87    
Maximum Humidity 100    
Minimum Humidity 77    
Precipitation  
Precipitation 0.00 in - - ()
Sea Level Pressure  
Sea Level Pressure 30.35 in    
Wind  
Wind Speed 4 mph ()    
Max Wind Speed 8 mph    
Max Gust Speed -    
Visibility 6.2 miles    
Events Rain    
Averages and records for this station are not official NWS values.
T = Trace of Precipitation, MM = Missing Value Source: Averaged Metar Reports

Daily Weather History Graph

Daily Weather History Graph

Search for Another Location

Airport or City:

Trip Planner

Search our weather history database for the weather conditions in past years. The results will help you decide how hot, cold, wet, or windy it might be!

Date:

Astronomy

Nov. 12, 2012 Rise Set
Actual Time 8:05 AM CET 5:53 PM CET
Civil Twilight 7:34 AM CET 6:23 PM CET
Nautical Twilight 7:00 AM CET 6:58 PM CET
Astronomical Twilight 6:26 AM CET 7:31 PM CET
Moon 6:11 AM CET 4:49 PM CET
Length of Visible Light 10h 49m
Length of Day
9h 47m
Waning Crescent, 3% of the Moon is Illuminated
Nov 12
Waning Crescent
Nov 13
New
Nov 20
First Quarter
Nov 28
Full
Dec 6
Last Quarter

Hourly Weather History & Observations

Time (CET) Temp. Windchill Dew Point Humidity Pressure Visibility Wind Dir Wind Speed Gust Speed Precip Events Conditions
5:30 AM 48.2 °F - 44.6 °F 87% 30.27 in 5.6 mi SW 8.1 mph - N/A Rain Light Rain
6:00 AM 48.2 °F - 44.6 °F 87% 30.27 in 5.6 mi SW 6.9 mph - N/A   Light Drizzle
6:30 AM 48.2 °F - 42.8 °F 82% 30.30 in 6.2 mi SW 4.6 mph - N/A   Mostly Cloudy
7:00 AM 46.4 °F - 42.8 °F 87% 30.30 in 6.2 mi Variable 1.2 mph - N/A   Partly Cloudy
7:30 AM 46.4 °F 45.2 °F 42.8 °F 87% 30.30 in 6.2 mi SW 3.5 mph - N/A   Partly Cloudy
8:00 AM 46.4 °F 42.9 °F 42.8 °F 87% 30.30 in 6.2 mi SW 6.9 mph - N/A   Partly Cloudy
8:30 AM 48.2 °F - 42.8 °F 82% 30.33 in 6.2 mi SW 6.9 mph - N/A   Partly Cloudy
9:00 AM 48.2 °F - 44.6 °F 87% 30.33 in 6.2 mi SW 5.8 mph - N/A   Scattered Clouds
9:30 AM 50.0 °F - 44.6 °F 82% 30.36 in 6.2 mi SW 6.9 mph - N/A   Scattered Clouds
10:00 AM 50.0 °F - 44.6 °F 82% 30.36 in 6.2 mi SW 8.1 mph - N/A   Scattered Clouds
10:30 AM 50.0 °F - 46.4 °F 87% 30.36 in 6.2 mi SW 6.9 mph - N/A   Scattered Clouds
11:00 AM 51.8 °F - 46.4 °F 82% 30.36 in 6.2 mi SW 6.9 mph - N/A Rain Light Rain
11:30 AM 51.8 °F - 46.4 °F 82% 30.39 in 6.2 mi SW 5.8 mph - N/A   Scattered Clouds
12:00 PM 51.8 °F - 46.4 °F 82% 30.39 in 6.2 mi WSW 3.5 mph - N/A   Mostly Cloudy
12:30 PM 51.8 °F - 48.2 °F 88% 30.36 in 6.2 mi Variable 2.3 mph - N/A   Scattered Clouds
1:00 PM 53.6 °F - 48.2 °F 82% 30.36 in 6.2 mi SSW 5.8 mph - N/A   Scattered Clouds
1:30 PM 53.6 °F - 48.2 °F 82% 30.36 in 6.2 mi SW 5.8 mph - N/A   Scattered Clouds
2:00 PM 53.6 °F - 48.2 °F 82% 30.36 in 6.2 mi SW 4.6 mph - N/A   Scattered Clouds
3:00 PM - - - N/A% - 6.2 mi SW 3.5 mph - N/A   Partly Cloudy
4:30 PM 55.4 °F - 48.2 °F 77% 30.36 in 6.2 mi West 3.5 mph - N/A   Scattered Clouds
5:00 PM 53.6 °F - 48.2 °F 82% 30.36 in 6.2 mi Calm Calm - N/A   Partly Cloudy
5:30 PM 53.6 °F - 48.2 °F 82% 30.36 in 6.2 mi Variable 1.2 mph - N/A   Partly Cloudy
6:00 PM 51.8 °F - 48.2 °F 88% 30.36 in 6.2 mi Calm Calm - N/A   Partly Cloudy
6:30 PM 51.8 °F - 46.4 °F 82% 30.36 in 6.2 mi SSW 1.2 mph - N/A   Partly Cloudy
7:00 PM 50.0 °F - 46.4 °F 87% 30.36 in 6.2 mi Calm Calm - N/A   Partly Cloudy
7:30 PM 48.2 °F - 46.4 °F 93% 30.36 in 6.2 mi SSE 2.3 mph - N/A   Partly Cloudy
8:00 PM 48.2 °F - 46.4 °F 93% 30.36 in 6.2 mi Calm Calm - N/A   Partly Cloudy
8:30 PM 48.2 °F - 46.4 °F 93% 30.36 in - Calm Calm - N/A   Clear
9:00 PM 46.4 °F - 44.6 °F 93% 30.36 in - Calm Calm - N/A   Clear
9:30 PM 46.4 °F - 44.6 °F 93% 30.36 in 6.2 mi Calm Calm - N/A   Partly Cloudy
10:00 PM 46.4 °F - 44.6 °F 93% 30.36 in - Calm Calm - N/A   Clear
10:30 PM 44.6 °F - 44.6 °F 100% 30.36 in - Calm Calm - N/A   Clear
11:00 PM 44.6 °F - 44.6 °F 100% 30.36 in - Calm Calm - N/A   Clear